Location: Staunton
(38.1490°N, 79.0720°W)
Time: 08:09:37
(UTC-04:00)

ISS - Visible Passes

Search period start: 24 May 2018 00:00
Search period end: 03 June 2018 00:00
Orbit: 402 x 407 km, 51.6° (Epoch: 25 May)

Date Brightness Start Highest point End Pass type
(mag) Time Alt. Az. Time Alt. Az. Time Alt. Az.
24 May -0.3 01:36:13 10° N 01:37:12 11° NNE 01:37:42 11° NNE visible
24 May -1.5 21:26:38 10° W 21:29:31 28° NNW 21:32:23 10° NNE visible
25 May -0.5 22:13:02 10° NW 22:14:19 12° NNW 22:15:36 10° N visible
26 May -0.3 01:27:28 10° NNW 01:27:40 11° NNW 01:27:40 11° NNW visible
26 May -0.7 21:19:42 10° WNW 21:21:50 16° NNW 21:23:58 10° NNE visible
27 May -0.5 00:35:48 10° N 00:36:53 12° NNE 00:36:53 12° NNE visible
28 May -0.5 21:13:23 10° NNW 21:14:14 11° NNW 21:15:05 10° N visible
29 May -0.7 00:27:07 10° NNW 00:28:09 15° N 00:28:09 15° N visible
29 May -0.9 23:35:20 10° NNW 23:37:03 13° NNE 23:37:31 13° NNE visible
30 May -0.7 22:43:56 10° N 22:44:28 10° NNE 22:45:00 10° NNE visible
31 May -0.8 00:18:40 10° NW 00:19:33 16° NNW 00:19:33 16° NNW visible
31 May -1.5 23:26:40 10° NNW 23:28:58 21° NNE 23:28:58 21° NNE visible
01 Jun -1.2 22:34:46 10° NNW 22:36:47 15° NNE 22:38:25 11° NE visible
02 Jun -0.8 00:10:24 10° NW 00:11:03 15° NW 00:11:03 15° NW visible
02 Jun -0.9 21:43:06 10° N 21:44:11 11° NNE 21:45:16 10° NE visible
02 Jun -2.3 23:18:11 10° NW 23:20:31 35° N 23:20:31 35° N visible
